Погода в Туманах

Россия / Кировская область     57°41′51″N   50°51′29″E
темп.,
°C
ветер,
м/с
пор.,
м/с
влажн.,
%
обл.,
%
осадки,
мм/ч
давл.,
гПа
погр.,
м
15 апреля, чт
чт1500:00+7ююз33865 0.0 102332
03:00+6ююз35905 0.0 102267
06:00+3ю24100100 0.0 102273
09:00+7ю26100100 0.1 1021125
12:00+11зюз349270 0.0 1020248
15:00+11сз339059 0.1 1020197
18:00+10с5109786 0.2 1020354
21:00+6св71488100 0.6 1023493
16 апреля, пт
пт1600:00+5св61281100 0.0 1025533
03:00+4св7128191 0.0 1026596
06:00+3всв7136749 0.0 1028555
09:00+6всв79525 0.0 1029767
12:00+9всв67424 0.0 10291087
15:00+10св66370 0.0 10281193
18:00+7св47500 0.0 1028168
21:00+4св37650 0.0 1030113
17 апреля, сб
сб1700:00+2св36710 0.0 103091
03:00+1св34743 0.0 103057
06:00+2ссв36685 0.0 1031185
09:00+7ссв45505 0.0 1030803
12:00+9ссв45455 0.0 10291435
15:00+10с45445 0.0 10281492
18:00+8с36530 0.0 1027136
21:00+5с33635 0.0 102730
18 апреля, вс
вс1800:00+3ссз34710 0.0 102654
03:00+2с34790 0.0 102669
06:00+3с38790 0.0 1026255
09:00+6св676879 0.0 1027967
12:00+6св575277 0.0 10281342
15:00+7всв77331 0.0 10291718
18:00+4всв69410 0.0 1031801
21:00+1всв512520 0.0 1033417
19 апреля, пн
пн1900:000всв613560 0.0 1034476
03:00−1всв511575 0.0 1036408
06:00−1всв69595 0.0 1036514
09:00+3в67365 0.0 10361514
12:00+5всв56320 0.0 10361672
15:00+6всв56310 0.0 10351696
18:00+4всв35425 0.0 1035143
21:00+1всв33505 0.0 103630